Miscellaneous Local Product
Issued by NWS Hastings, NE

Home | Current Version | Previous Version | Graphics & Text | Print | Product List | Glossary On
Versions: 1 2 3 4 5 6 7 8 9 10 11 12 13 14 15 16 17 18 19 20 21 22 23 24 25 26 27 28 29 30 31 32 33 34 35 36 37 38 39 40 41 42 43 44 45 46 47 48 49 50
000
AXUS43 KGID 040602
MISGRI

GID CWA HOURLY WEATHER ROUNDUP
NATIONAL WEATHER SERVICE HASTINGS NE
1200 AM CST WED MAR 04 2015

NOTE: "FAIR" INDICATES FEW OR NO CLOUDS BELOW 12,000 FEET WITH NO
SIGNIFICANT WEATHER AND/OR OBSTRUCTIONS TO VISIBILITY.

...SOUTH CENTRAL NEBRASKA...

CITY           SKY/WX    TMP DP  RH WIND       PRES   REMARKS
GRAND ISLAND   LGT SNOW  17  13  84 N12       30.17R FOG     WCI   4
HASTINGS       LGT SNOW  17  12  80 N14       30.15R WCI   3
KEARNEY        CLOUDY    18  12  79 N7        30.15S VSB 3/4 WCI   8
ORD            CLOUDY    17   9  70 W6        30.13S WCI   9
YORK           CLOUDY    19   7  58 N13       30.15R WCI   7
AURORA         LGT SNOW  18  10  71 N17       30.15R WCI   3
LEXINGTON      LGT SNOW  18  15  89 N5        30.13F WCI  11
HOLDREGE       LGT SNOW  18  14  86 N10       30.14R WCI   6
HEBRON         CLOUDY    21   6  51 N12G20    30.16R WCI   9

...NEBRASKA PANHANDLE...

CITY           SKY/WX    TMP DP  RH WIND       PRES   REMARKS
CHADRON        CLEAR      0  -5  79 SW8       30.10R WCI -14
ALLIANCE       MOCLDY    12   6  77 NW9       30.04R WCI   0
SCOTTSBLUFF    CLOUDY    14   7  73 NW8       30.06R WCI   3
SIDNEY         LGT SNOW  14  10  84 N9        30.03R FOG     WCI   2

...WESTERN AND NORTH CENTRAL NEBRASKA...

CITY           SKY/WX    TMP DP  RH WIND       PRES   REMARKS
VALENTINE      PTCLDY    11   2  67 W7        30.11R WCI   0
AINSWORTH      MOCLDY    15   2  56 NW9       30.10R WCI   3
ONEILL         CLOUDY    18   4  53 NW8       30.12R WCI   8
BROKEN BOW     CLOUDY    16  10  77 NW6       30.12S WCI   7
IMPERIAL       SNOW      17  13  84 NE7       30.07R VSB 1/2 WCI   8
NORTH PLATTE   CLOUDY    16  12  84 NE6       30.11F WCI   7
MCCOOK         LGT SNOW  20  15  81 NE8       30.10F WCI  10

...EASTERN NEBRASKA...

CITY           SKY/WX    TMP DP  RH WIND       PRES   REMARKS
NORFOLK        CLOUDY    18   5  57 W5        30.14R WCI  11
SO SIOUX CITY  CLOUDY    16   6  65 NW6       30.17R WCI   7
TEKAMAH        CLOUDY    19   6  57 N8        30.19R WCI   9
COLUMBUS       CLOUDY    18   3  53 NW10      30.17S WCI   6
ALBION         CLOUDY    19   4  53 NW5       30.14S WCI  12
OMAHA EPPLEY   CLOUDY    18   6  59 N17G26    30.14R WCI   3
OFFUTT AFB     CLOUDY    18   5  55 N10       30.14R WCI   7
MILLARD        CLOUDY    19   7  58 N9        30.15R WCI   9
LINCOLN        CLOUDY    20   6  55 N15       30.17R WCI   6
NEBRASKA CITY  CLEAR     19   5  54 N14G25    30.12R WCI   5
BEATRICE       CLOUDY    20   8  58 N16G25    30.13R WCI   6
FALLS CITY     CLEAR     20   7  57 N13       30.12R WCI   7

...NORTHERN KANSAS...

CITY           SKY/WX    TMP DP  RH WIND       PRES   REMARKS
GOODLAND       CLOUDY    21  11  65 NE16      30.01R WCI   7
HILL CITY      CLOUDY    22  12  65 NE16      30.12R WCI   8
NORTON         LGT SNOW  19  12  73 N13       30.12R WCI   7
PHILLIPSBURG   LGT SNOW  23  18  80 N14G20    30.16R WCI  11
SMITH CENTER   LGT SNOW  19  10  68 N20G26    30.16R WCI   4
BELOIT         CLOUDY    25   9  50 N14       30.15R WCI  13
HAYS           CLOUDY    25   3  39 N17G23    30.11R WCI  11
RUSSELL        CLOUDY    25   8  48 N20       30.09R WCI  11
CONCORDIA      CLOUDY    22   9  57 N16       30.14R WCI   8
SALINA         CLOUDY    28   7  41 N14       30.12R WCI  17
TOPEKA         MOCLDY    28  16  60 N14G20    30.10R WCI  17



USA.gov is the U.S. government's official web portal to all federal, state and local government web resources and services.